Home   Weather   Kalamazoo   Past weeks

Flag for USA Past Weather in Kalamazoo, Michigan, USA — Yesterday and Last 2 Weeks

Now
42 °F

Light rain. Fog.


Feels Like: 39 °F
Forecast: 36 / 43 °F
Wind: 5 mph from Southwest

Location: Kalamazoo / Battle Creek International Airport

Current Time: Jan 17, 2017 at 10:25:07 am

Latest Report: Jan 17, 2017 at 9:04 am


Visibility: 0 mi

Pressure: 29.75 "Hg

Humidity: 92%

Dew Point: 40 °F

Location of KalamazooLocation

Past Weather in Kalamazoo — Graph

°F

Kalamazoo Temperature Yesterday

Maximum temperature yesterday: 36 °F (at 2:53 pm)
Minimum temperature yesterday: 23 °F (at 1:53 am)
Average temperature yesterday: 32 °F

High & Low Weather Summary for the Past Weeks

 TemperatureHumidityPressure
High49 °F (Jan 10, 5:53 pm)97% (Jan 3, 12:06 pm)30.79 "Hg (Jan 3, 12:06 pm)
Low3 °F (Jan 6, 7:53 am)44% (Jan 15, 3:53 pm)29.32 "Hg (Jan 10, 5:34 pm)
Average25 °F76%30.15 "Hg
* Reported Jan 2 9:53 am — Jan 17 9:04 am, Kalamazoo, Weather by CustomWeather, © 2017

Note: Actual official high and low records may vary slightly from our data, if they occured in-between our weather recording intervals... More about our weather records

Advertising

Kalamazoo Weather History for the Previous 24 Hours

Scroll right to see more
 ConditionsComfort  
Time TempWeatherWind HumidityBarometerVisibility
9:04 am
Tue, Jan 17
42 °FLight rain. Fog.5 mph92%29.75 "Hg0 mi
8:13 am43 °FFog.5 mph89%29.74 "Hg1 mi
8:03 am43 °FFog.3 mph89%29.74 "Hg2 mi
6:53 am42 °FLight rain. Fog.7 mph89%29.77 "Hg6 mi
5:53 am42 °FLight rain. Fog.6 mph92%29.80 "Hg6 mi
5:19 am42 °FStrong thunderstorms. Fog.5 mph92%29.80 "Hg1 mi
4:26 am41 °FLight rain. Fog.10 mph89%29.78 "Hg1 mi
3:53 am41 °FFog.9 mph89%29.83 "Hg2 mi
3:01 am39 °FFog.8 mph93%29.86 "Hg4 mi
2:11 am38 °FLight rain. Fog.7 mph93%29.88 "Hg3 mi
1:07 am37 °FLight rain. Fog.7 mph93%29.93 "Hg2 mi
12:36 am37 °FRain. Fog.6 mph93%29.94 "Hg2 mi
11:53 pm
Mon, Jan 16
36 °FLight rain. Fog.6 mph92%30.00 "Hg2 mi
10:53 pm36 °FFog.7 mph89%30.04 "Hg2 mi
9:53 pm36 °FLight rain. Fog.5 mph89%30.07 "Hg2 mi
9:30 pm35 °FLight rain. Fog.7 mph92%30.05 "Hg2 mi
9:00 pm35 °FLight rain. Fog.7 mph88%30.06 "Hg3 mi
7:53 pm36 °FLight rain. Fog.7 mph89%30.12 "Hg2 mi
6:53 pm36 °FRain. Fog.6 mph89%30.14 "Hg2 mi
5:53 pm36 °FLight rain. Fog.7 mph89%30.16 "Hg2 mi
5:30 pm36 °FLight rain. Fog.6 mph89%30.13 "Hg1 mi
4:53 pm36 °FRain. Fog.6 mph89%30.18 "Hg1 mi
3:53 pm36 °FLight rain. Fog.6 mph85%30.18 "Hg1 mi
2:53 pm36 °FLight rain. Fog.5 mph85%30.19 "Hg1 mi
1:55 pm35 °FLight rain. Fog.5 mph85%30.19 "Hg1 mi
1:21 pm35 °FLight freezing rain. Cloudy.3 mph85%30.21 "Hg1 mi
12:53 pm35 °FLight freezing rain. Mostly cloudy.6 mph82%30.25 "Hg2 mi
11:53 am34 °FLight freezing rain. Overcast.8 mph76%30.29 "Hg4 mi
10:53 am33 °FLight freezing rain. Overcast.No wind78%30.34 "Hg2 mi
10:07 am32 °FLight freezing rain. Mostly cloudy.3 mph79%30.30 "Hg2 mi
Weather by CustomWeather, © 2017

See weather overviewHow to use our weather pages